Location: Newark
(49.8969°N, 3.3422°E)
Time: 22:01:04
(UTC+00:00)

Tiros 1 - Pass Details

Date: 21 January 2021
Orbit: 630 x 664 km, 48.4° (Epoch: 08 March)

Event Time Altitude Azimuth Distance (km) Brightness Sun altitude
Rises 19:59:26 0° 245° (WSW) 2,917 11.2 -34.3°
Reaches altitude 10° 20:01:46 10° 241° (WSW) 2,008 10.2 -34.7°
Enters shadow 20:02:35 15° 239° (WSW) 1,703 9.7 -34.8°
